Flag for Germany Weather past 2 weeks in Wittmund, Lower Saxony, Germany

Now
63 °F

Partly cloudy.


Feels Like: 63 °F
Forecast: 58 / 69 °F
Wind: 5 mph from Southeast

Location: Wittmundhaven

Current Time: Aug 29, 2014 at 1:22:36 AM

Latest Report: Aug 29, 2014 at 12:20 AM


Visibility: N/A

Pressure: 29.92 "Hg

Humidity: 88%

Dew point: 59 °F

Location of WittmundLocation

Historic Weather in Wittmund — Graph

°F

Wittmund temperature yesterday

Maximum temperature yesterday: 75 °F (at 4:20 PM)
Minimum temperature yesterday: 50 °F (at 5:20 AM)
Average temperature yesterday: 62 °F

Past Weeks' High & Low Weather Summary

 TemperatureHumidityPressure
High75 °F (Aug 28, 4:20 PM)100% (Aug 14, 11:20 PM)30.04 "Hg (Aug 14, 11:20 PM)
Low46 °F (Aug 21, 5:20 AM)45% (Aug 25, 4:20 PM)29.47 "Hg (Aug 18, 6:20 AM)
Average57 °F81%29.84 "Hg
* Reported Aug 13 11:20 PM — Aug 28 11:20 PM, Wittmund, Weather by CustomWeather, © 2014

Note: Actual official high and low records may vary slightly from our data, if they occured in-between our weather recording intervals... More about our weather records

Advertising

Wittmund weather history for previous 24 hours

 ConditionsComfort  
Time TempWeatherWind HumidityBarometerVisibility
11:20 PM
Aug 28
64 °FPassing clouds.5 mph83%29.92 "HgN/A
10:20 PM64 °FPartly cloudy.5 mph88%29.92 "HgN/A
9:20 PM64 °FPartly sunny.3 mph88%29.92 "HgN/A
8:20 PM68 °FPartly sunny.12 mph73%29.92 "HgN/A
7:20 PM72 °FBroken clouds.5 mph65%29.92 "HgN/A
6:20 PM72 °FPartly sunny.6 mph65%29.92 "HgN/A
5:20 PM73 °FPartly sunny.9 mph57%29.92 "HgN/A
4:20 PM75 °FScattered clouds.9 mph50%29.92 "HgN/A
3:20 PM73 °FScattered clouds.12 mph53%29.95 "HgN/A
2:20 PM73 °FScattered clouds.9 mph50%29.95 "HgN/A
1:20 PM72 °FPassing clouds.12 mph53%29.98 "HgN/A
12:54 PM72 °FPassing clouds.13 mph53%29.98 "HgN/A
12:20 PM70 °FPassing clouds.12 mph57%29.98 "HgN/A
11:20 AM68 °FPassing clouds.9 mph56%29.98 "HgN/A
10:20 AM64 °FPassing clouds.7 mph64%30.01 "HgN/A
9:20 AM59 °FPassing clouds.5 mph77%30.01 "HgN/A
8:20 AM54 °FPassing clouds.5 mph94%30.01 "Hg5 mi
7:20 AM50 °FFog.3 mph100%30.01 "Hg2 mi
6:54 AM50 °FFog.3 mph100%30.01 "Hg1 mi
6:20 AM50 °FFog.3 mph94%30.01 "Hg0 mi
5:20 AM50 °FFog.5 mph100%30.01 "Hg0 mi
4:20 AM52 °FFog.3 mph94%30.04 "Hg0 mi
3:20 AM52 °FFog.3 mph100%30.04 "Hg1 mi
2:20 AM52 °FFog.2 mph94%30.04 "Hg0 mi
1:20 AM52 °FFog.2 mph94%30.04 "Hg1 mi
Weather by CustomWeather, © 2014

See weather overviewHow to use our weather pages